WXM80 ListenWXM80 Stop

You find our weather info also at:

UK Metoffice

WeatherCloud

Weather Underground

Northeastern Weather Network

AWEKAS

Citizen Weather Observer Program (CWOP)

HAMweather, WeatherForYou, PWS Weather


Weather Underground History page Text

Daily Summary for October 29, 2017 Units:  Metric    English   Both
« Previous Day
Next Day »
Daily Weekly Monthly Yearly Custom
  High: Low: Average:
Temperature: 19.8 °C 16.6 °C 17.7 °C
Dew Point: 19.4 °C 15.4 °C 17 °C
Humidity: 99 % 87 % 96 %
Wind Speed: 27.4 km/h 0 km/h 6.6 km/h
Wind Gust: 59.5 km/h - -
Wind:- - SE
Pressure: 1012.4 hPa 971.8 hPa -
Precipitation: 36.83 mm    
Historical Graphs
 
 
Tabular Data for October 29, 2017
Time Temperature Dew Point Pressure Wind Wind Speed Wind Gust Humidity Rainfall Rate (Hourly)
00:04 17 °C 15.8 °C 1012.4 hPa SE 1.4 km/h 5.6 km/h 93 % 0 mm
00:09 17 °C 15.8 °C 1012.4 hPa SE 1.9 km/h 4.8 km/h 93 % 0 mm
00:14 17.1 °C 15.9 °C 1012.4 hPa SSE 2.7 km/h 5.6 km/h 93 % 0 mm
00:19 17.1 °C 15.9 °C 1012.4 hPa SE 4.3 km/h 9.3 km/h 93 % 0 mm
00:24 17.1 °C 15.8 °C 1012.4 hPa SSE 1.9 km/h 12.9 km/h 92 % 0 mm
00:29 17.2 °C 15.8 °C 1012.4 hPa SSE 3.4 km/h 5.6 km/h 92 % 0 mm
00:34 17.2 °C 15.9 °C 1012.4 hPa SE 5.3 km/h 7.4 km/h 92 % 0 mm
00:39 17.2 °C 15.9 °C 1012.4 hPa SSE 2.4 km/h 7.4 km/h 92 % 0 mm
00:44 17.3 °C 15.9 °C 1012.4 hPa SSE 1.3 km/h 11.1 km/h 92 % 0 mm
00:49 17.3 °C 16 °C 1012.4 hPa ESE 5.6 km/h 7.4 km/h 92 % 0 mm
00:54 17.4 °C 15.9 °C 1012.4 hPa SE 5.5 km/h 16.7 km/h 91 % 0 mm
01:00 17.4 °C 15.9 °C 1012.4 hPa SSE 3.9 km/h 18.5 km/h 91 % 0 mm
01:05 17.5 °C 16 °C 1012.4 hPa SE 2.3 km/h 3.7 km/h 91 % 0 mm
01:10 17.5 °C 16 °C 1012.4 hPa SE 0.8 km/h 3.7 km/h 91 % 0 mm
01:15 17.5 °C 16 °C 1012.1 hPa SE 3.1 km/h 7.4 km/h 91 % 0 mm
01:20 17.6 °C 16.1 °C 1012.1 hPa SSE 3.7 km/h 11.1 km/h 91 % 0 mm
01:25 17.6 °C 16.1 °C 1012.1 hPa SSE 6.6 km/h 14.8 km/h 91 % 0 mm
01:30 17.6 °C 15.9 °C 1012.1 hPa SSE 7.1 km/h 16.7 km/h 90 % 0 mm
01:35 17.7 °C 16 °C 1012.1 hPa SE 3.2 km/h 7.4 km/h 90 % 0 mm
01:40 17.7 °C 16 °C 1011.7 hPa SE 8.5 km/h 14.8 km/h 90 % 0 mm
01:45 17.7 °C 16.1 °C 1011.7 hPa SSE 5.5 km/h 13 km/h 90 % 0 mm
01:50 17.8 °C 16.1 °C 1011.7 hPa SSE 3.4 km/h 9.3 km/h 90 % 0 mm
01:55 17.8 °C 16.1 °C 1011.7 hPa SE 5.6 km/h 14.5 km/h 90 % 0 mm
02:00 17.8 °C 16.2 °C 1011.4 hPa SE 7.6 km/h 14.8 km/h 90 % 0 mm
02:05 17.9 °C 16.2 °C 1011.4 hPa SSE 6 km/h 13 km/h 90 % 0 mm
02:10 17.9 °C 16.2 °C 1011.4 hPa SSE 6.4 km/h 9.7 km/h 90 % 0 mm
02:15 17.9 °C 16.3 °C 1011.4 hPa SE 5.6 km/h 14.8 km/h 90 % 0 mm
02:20 17.9 °C 16.3 °C 1011.4 hPa SE 3.7 km/h 9.3 km/h 90 % 0 mm
02:26 18 °C 16.2 °C 1011.4 hPa SSE 4.8 km/h 12.9 km/h 89 % 0 mm
02:31 18.1 °C 16.2 °C 1011.4 hPa SSE 1.6 km/h 9.7 km/h 89 % 0 mm
02:41 18.1 °C 16.2 °C 1011.4 hPa SSE 4.8 km/h 12.9 km/h 89 % 0 mm
02:46 18.1 °C 16.3 °C 1011.1 hPa SSE 1.6 km/h 12.9 km/h 89 % 0 mm
02:51 18.2 °C 16.3 °C 1011.1 hPa Calm   8 km/h 89 % 0 mm
02:56 18.2 °C 16.5 °C 1011.1 hPa South 2.1 km/h 5.6 km/h 90 % 0 mm
03:01 18.2 °C 16.5 °C 1011.1 hPa SSE 2.7 km/h 11.1 km/h 90 % 0 mm
03:06 18.2 °C 16.6 °C 1011.1 hPa SSE 4.8 km/h 12.9 km/h 90 % 0 mm
03:11 18.2 °C 16.6 °C 1011.1 hPa SE 3.7 km/h 11.3 km/h 90 % 0 mm
03:16 18.3 °C 16.6 °C 1011.1 hPa SSE 1.6 km/h 19.3 km/h 90 % 0 mm
03:26 18.2 °C 16.4 °C 1011.1 hPa SSE 1.6 km/h 14.5 km/h 89 % 0 mm
03:31 18.2 °C 16.4 °C 1010.7 hPa SSE 8 km/h 14.5 km/h 89 % 0 mm
03:36 18.2 °C 16.3 °C 1010.7 hPa South 1.6 km/h 9.7 km/h 89 % 0 mm
03:41 18.2 °C 16.3 °C 1010.7 hPa South 1.6 km/h 11.3 km/h 89 % 0 mm
03:46 18.1 °C 16.1 °C 1010.7 hPa SSE 1.6 km/h 12.9 km/h 88 % 0 mm
03:51 18.1 °C 16.1 °C 1011.1 hPa SSE 1.6 km/h 8 km/h 88 % 0 mm
03:56 18.1 °C 15.8 °C 1011.1 hPa SSE 8 km/h 11.3 km/h 87 % 0 mm
04:01 18.1 °C 15.8 °C 1010.7 hPa SSW 1.3 km/h 13 km/h 87 % 0 mm
04:06 18 °C 15.8 °C 1010.7 hPa South 3.2 km/h 12.9 km/h 87 % 0 mm
04:11 17.9 °C 15.9 °C 1010.7 hPa SSW 4.3 km/h 5.6 km/h 88 % 0 mm
04:16 17.9 °C 15.9 °C 1010.4 hPa South 4.8 km/h 9.7 km/h 88 % 0 mm
04:21 17.8 °C 15.8 °C 1010.4 hPa South 3.2 km/h 11.3 km/h 88 % 0 mm
04:26 17.7 °C 15.7 °C 1010.7 hPa South 3.2 km/h 9.7 km/h 88 % 0 mm
04:31 17.6 °C 15.8 °C 1010.7 hPa SSE 3.2 km/h 14.5 km/h 89 % 0 mm
04:41 17.4 °C 15.6 °C 1010.4 hPa Calm   12.9 km/h 89 % 0 mm
04:42 17.4 °C 15.7 °C 1010.4 hPa South 1.8 km/h 5.6 km/h 90 % 0 mm
04:48 17.3 °C 15.6 °C 1010.4 hPa SW 2.9 km/h 5.6 km/h 90 % 0 mm
04:53 17.2 °C 15.6 °C 1010.4 hPa South 4.8 km/h 5.6 km/h 90 % 0 mm
04:58 17.2 °C 15.5 °C 1010.4 hPa SSW 2.4 km/h 5.6 km/h 90 % 0 mm
05:03 17.1 °C 15.6 °C 1010.4 hPa Calm   3.7 km/h 91 % 0 mm
05:08 17.1 °C 15.6 °C 1010.4 hPa SSW 0.8 km/h 5.6 km/h 91 % 0 mm
05:13 17 °C 15.5 °C 1010.4 hPa Calm   1.9 km/h 91 % 0 mm
05:18 16.9 °C 15.4 °C 1010.4 hPa SE 0.3 km/h 5.6 km/h 91 % 0 mm
05:23 16.9 °C 15.6 °C 1010.4 hPa Calm     92 % 0 mm
05:28 16.8 °C 15.5 °C 1010 hPa SSE 0.6 km/h 5.6 km/h 92 % 0 mm
05:33 16.8 °C 15.7 °C 1010 hPa SSE 0.5 km/h 1.6 km/h 93 % 0 mm
05:38 16.8 °C 15.7 °C 1009.7 hPa South 3.1 km/h 6.4 km/h 93 % 0.25 mm
05:43 16.7 °C 15.6 °C 1009.7 hPa SE 0.6 km/h 5.6 km/h 93 % 0.25 mm
05:48 16.7 °C 15.6 °C 1009.4 hPa SE 1.3 km/h 1.9 km/h 93 % 0.51 mm
05:53 16.7 °C 15.6 °C 1009.4 hPa SE 2.9 km/h 3.7 km/h 93 % 0.51 mm
05:58 16.6 °C 15.7 °C 1009 hPa ESE 2.4 km/h 3.7 km/h 94 % 0.76 mm
06:03 16.6 °C 15.7 °C 1009 hPa SE 3.1 km/h 7.4 km/h 94 % 0.76 mm
06:08 16.6 °C 15.6 °C 1009.4 hPa SE 3.2 km/h 7.4 km/h 94 % 0.76 mm
06:14 16.6 °C 15.8 °C 1009 hPa SE 4.5 km/h 18.5 km/h 95 % 1.02 mm
06:19 16.6 °C 15.8 °C 1009 hPa ESE 5 km/h 14.5 km/h 95 % 1.02 mm
06:24 16.6 °C 15.8 °C 1009 hPa SSE 3.5 km/h 11.3 km/h 95 % 1.27 mm
06:29 16.6 °C 15.8 °C 1009 hPa SE 4 km/h 11.1 km/h 95 % 1.27 mm
06:34 16.6 °C 15.9 °C 1008.7 hPa SE 6.1 km/h 29.6 km/h 96 % 1.27 mm
06:39 16.6 °C 15.9 °C 1009 hPa ESE 4.8 km/h 24.1 km/h 96 % 1.27 mm
06:44 16.6 °C 15.9 °C 1009 hPa SSE 8.7 km/h 18.5 km/h 96 % 1.27 mm
06:49 16.6 °C 15.9 °C 1009 hPa ESE 9 km/h 14.8 km/h 96 % 1.02 mm
06:54 16.6 °C 15.9 °C 1008.7 hPa SE 11.7 km/h 20.9 km/h 96 % 1.27 mm
06:59 16.6 °C 15.9 °C 1008.7 hPa ESE 12.9 km/h 20.4 km/h 96 % 1.02 mm
07:04 16.6 °C 15.9 °C 1008.7 hPa ESE 10.1 km/h 25.9 km/h 96 % 1.02 mm
07:09 16.7 °C 16 °C 1008.7 hPa ESE 7.9 km/h 24.1 km/h 96 % 1.02 mm
07:14 16.7 °C 16 °C 1008.7 hPa SSE 6.1 km/h 22.2 km/h 96 % 1.02 mm
07:19 16.7 °C 16.1 °C 1009 hPa SE 13 km/h 25.9 km/h 96 % 1.02 mm
07:24 16.8 °C 16.1 °C 1009 hPa ESE 4.2 km/h 14.8 km/h 96 % 0.76 mm
07:29 16.8 °C 16.3 °C 1009 hPa SE 6.4 km/h 11.1 km/h 97 % 0.76 mm
07:34 16.9 °C 16.4 °C 1008.7 hPa SE 6.9 km/h 16.7 km/h 97 % 1.02 mm
07:39 16.9 °C 16.4 °C 1008.7 hPa ESE 5.1 km/h 9.3 km/h 97 % 0.76 mm
07:44 16.9 °C 16.4 °C 1009 hPa SE 3.1 km/h 9.3 km/h 97 % 0.76 mm
07:50 16.9 °C 16.4 °C 1009 hPa SE 5.3 km/h 14.8 km/h 97 % 0.76 mm
07:55 16.9 °C 16.4 °C 1009 hPa SSE 5.1 km/h 14.8 km/h 97 % 0.51 mm
08:00 16.9 °C 16.4 °C 1008.7 hPa ESE 5.5 km/h 9.3 km/h 97 % 0.51 mm
08:05 16.9 °C 16.4 °C 1008.7 hPa ESE 2.7 km/h 6.4 km/h 97 % 0.76 mm
08:10 16.9 °C 16.4 °C 1008.4 hPa SSE 4.5 km/h 14.8 km/h 97 % 0.51 mm
08:15 16.9 °C 16.4 °C 1008.4 hPa ESE 3.1 km/h 9.3 km/h 97 % 0.76 mm
08:20 16.8 °C 16.3 °C 1008.4 hPa SE 4.8 km/h 11.1 km/h 97 % 0.76 mm
08:25 16.8 °C 16.3 °C 1008.4 hPa SE 3.7 km/h 7.4 km/h 97 % 1.02 mm
08:30 16.8 °C 16.3 °C 1008.7 hPa SE 7.2 km/h 16.7 km/h 97 % 1.02 mm
08:35 16.9 °C 16.4 °C 1008.7 hPa SE 6 km/h 8 km/h 97 % 1.02 mm
08:40 16.8 °C 16.3 °C 1008.4 hPa ESE 6.6 km/h 13 km/h 97 % 1.27 mm
08:45 16.8 °C 16.3 °C 1008.4 hPa SE 3.4 km/h 5.6 km/h 97 % 1.27 mm
08:50 16.8 °C 16.3 °C 1008.4 hPa SE 8.5 km/h 14.8 km/h 97 % 1.52 mm
08:55 16.9 °C 16.4 °C 1008 hPa ESE 3.5 km/h 5.6 km/h 97 % 1.78 mm
09:00 16.9 °C 16.4 °C 1008.4 hPa SE 1.4 km/h 5.6 km/h 97 % 2.03 mm
09:06 16.9 °C 16.4 °C 1008.4 hPa SE 1.6 km/h 5.6 km/h 97 % 2.03 mm
09:11 16.9 °C 16.4 °C 1008.4 hPa SE 1.6 km/h 8 km/h 97 % 0 mm
09:16 16.9 °C 16.4 °C 1008 hPa SE 1.6 km/h 12.9 km/h 97 % 0 mm
09:21 16.9 °C 16.4 °C 1008 hPa SE 0.2 km/h 3.7 km/h 97 % 2.54 mm
09:26 16.9 °C 16.4 °C 1007.7 hPa SE 1.6 km/h 8 km/h 97 % 0 mm
09:31 16.9 °C 16.4 °C 1007.7 hPa SE 3.2 km/h 6.4 km/h 97 % 0 mm
09:36 16.9 °C 16.4 °C 1008 hPa SSE 1.6 km/h 9.7 km/h 97 % 0 mm
09:41 16.9 °C 16.4 °C 1008 hPa SE 4.8 km/h 11.3 km/h 97 % 0 mm
09:46 16.9 °C 16.4 °C 1008 hPa SE 1.6 km/h 6.4 km/h 97 % 0.25 mm
09:51 16.9 °C 16.4 °C 1007.7 hPa SE 1.6 km/h 8 km/h 97 % 0 mm
09:56 16.9 °C 16.5 °C 1007.7 hPa Calm   9.7 km/h 97 % 0 mm
10:01 17 °C 16.5 °C 1007.7 hPa ESE 1.3 km/h 1.9 km/h 97 % 2.03 mm
10:06 17 °C 16.5 °C 1007.3 hPa Calm   1.9 km/h 97 % 2.03 mm
10:11 17 °C 16.5 °C 1007.3 hPa SE 1 km/h 5.6 km/h 97 % 2.29 mm
10:16 17 °C 16.5 °C 1007.3 hPa SSE 0.3 km/h 1.9 km/h 97 % 2.54 mm
10:21 17 °C 16.5 °C 1007.3 hPa Calm     97 % 2.79 mm
10:26 17 °C 16.7 °C 1007.3 hPa SE 0.5 km/h 3.7 km/h 98 % 3.3 mm
10:31 17 °C 16.7 °C 1007.3 hPa SE 1.6 km/h 7.4 km/h 98 % 3.56 mm
10:36 17.1 °C 16.7 °C 1007 hPa Calm   1.9 km/h 98 % 4.32 mm
10:41 17.1 °C 16.7 °C 1006.7 hPa Calm     98 % 4.57 mm
10:46 17.1 °C 16.7 °C 1006.7 hPa Calm     98 % 4.83 mm
10:51 17.1 °C 16.7 °C 1006.3 hPa Calm     98 % 5.33 mm
10:56 17.1 °C 16.8 °C 1006.3 hPa Calm     98 % 5.59 mm
11:01 17.1 °C 16.8 °C 1006.3 hPa SE 0.8 km/h 3.2 km/h 98 % 5.84 mm
11:06 17.1 °C 16.8 °C 1006.3 hPa Calm   1.9 km/h 98 % 6.1 mm
11:12 17.1 °C 16.8 °C 1006.3 hPa SE 1.1 km/h 3.7 km/h 98 % 6.1 mm
11:17 17.1 °C 16.8 °C 1006 hPa Calm   5.6 km/h 98 % 6.1 mm
11:22 17.2 °C 16.8 °C 1005.6 hPa SE 1.9 km/h 3.7 km/h 98 % 5.84 mm
11:27 17.2 °C 16.8 °C 1005.6 hPa Calm     98 % 5.84 mm
11:32 17.2 °C 16.8 °C 1006 hPa SE 1.6 km/h 5.6 km/h 98 % 5.59 mm
11:37 17.2 °C 16.9 °C 1005.6 hPa SE 0.2 km/h 1.9 km/h 98 % 5.59 mm
11:42 17.2 °C 16.9 °C 1006 hPa SE 1.6 km/h 5.6 km/h 98 % 5.33 mm
11:47 17.3 °C 16.9 °C 1005.6 hPa SE 2.6 km/h 5.6 km/h 98 % 5.08 mm
11:52 17.3 °C 16.9 °C 1005.3 hPa Calm     98 % 5.08 mm
11:57 17.3 °C 16.9 °C 1005.3 hPa SE 2.1 km/h 5.6 km/h 98 % 4.83 mm
12:02 17.3 °C 16.9 °C 1005.3 hPa SE 3.2 km/h 5.6 km/h 98 % 4.57 mm
12:07 17.3 °C 17 °C 1005 hPa SSE 3.5 km/h 4.8 km/h 98 % 4.32 mm
12:12 17.3 °C 17 °C 1005 hPa SE 1.3 km/h 5.6 km/h 98 % 4.06 mm
12:16 17.3 °C 17 °C 1005 hPa Calm   1.9 km/h 98 % 3.81 mm
12:21 17.3 °C 17 °C 1005 hPa Calm     98 % 3.56 mm
12:26 17.4 °C 17.1 °C 1005 hPa SSE 1.4 km/h 3.7 km/h 98 % 3.3 mm
12:31 17.3 °C 17 °C 1004.6 hPa SE 1.8 km/h 7.4 km/h 98 % 2.79 mm
12:36 17.3 °C 17 °C 1004.6 hPa SE 4.5 km/h 11.1 km/h 98 % 2.79 mm
12:41 17.3 °C 17 °C 1004.3 hPa SE 0.3 km/h 5.6 km/h 98 % 2.29 mm
12:42 17.3 °C 17 °C 1004.3 hPa Calm   5.6 km/h 98 % 2.29 mm
12:47 17.3 °C 17 °C 1004.3 hPa SSE 2.6 km/h 9.3 km/h 98 % 2.29 mm
12:52 17.3 °C 17 °C 1003.9 hPa Calm   1.9 km/h 98 % 2.03 mm
12:57 17.3 °C 17 °C 1003.6 hPa SE 1.4 km/h 9.3 km/h 98 % 1.78 mm
13:02 17.3 °C 17 °C 1003.6 hPa SE 0.3 km/h 1.9 km/h 98 % 1.78 mm
13:07 17.3 °C 17 °C 1003.3 hPa Calm   1.9 km/h 98 % 1.78 mm
13:12 17.4 °C 17.1 °C 1003.3 hPa SE 0.3 km/h 1.9 km/h 98 % 1.52 mm
13:17 17.4 °C 17.1 °C 1003.3 hPa SE 0.8 km/h 3.7 km/h 98 % 1.78 mm
13:22 17.4 °C 17.1 °C 1002.9 hPa SE 5.5 km/h 9.3 km/h 98 % 1.52 mm
13:27 17.5 °C 17.2 °C 1002.6 hPa ESE 4.2 km/h 11.1 km/h 98 % 1.78 mm
13:32 17.6 °C 17.2 °C 1002.6 hPa SSE 5.1 km/h 5.6 km/h 98 % 1.78 mm
13:37 17.7 °C 17.3 °C 1002.6 hPa SE 5 km/h 11.1 km/h 98 % 1.78 mm
13:42 17.7 °C 17.3 °C 1002.3 hPa ESE 8 km/h 16.1 km/h 98 % 2.03 mm
13:48 17.7 °C 17.4 °C 1002.6 hPa South 10.8 km/h 13 km/h 98 % 1.78 mm
13:53 17.8 °C 17.4 °C 1002.6 hPa ESE 6.9 km/h 16.7 km/h 98 % 1.78 mm
13:58 17.8 °C 17.4 °C 1002.6 hPa ESE 9 km/h 29.6 km/h 98 % 2.03 mm
14:03 17.8 °C 17.4 °C 1003.3 hPa ESE 4.3 km/h 18.5 km/h 98 % 2.03 mm
14:08 17.8 °C 17.5 °C 1003.3 hPa South 7.1 km/h 24.1 km/h 98 % 2.03 mm
14:13 17.8 °C 17.5 °C 1002.3 hPa SE 10 km/h 24.1 km/h 98 % 2.03 mm
14:18 17.8 °C 17.5 °C 1002.3 hPa ESE 16.4 km/h 25.9 km/h 98 % 2.03 mm
14:23 17.8 °C 17.5 °C 1001.9 hPa SSE 3.7 km/h 13 km/h 98 % 2.29 mm
14:28 17.8 °C 17.5 °C 1001.6 hPa East 9.3 km/h 16.7 km/h 98 % 2.29 mm
14:33 17.8 °C 17.5 °C 1001.2 hPa ESE 17.4 km/h 37 km/h 98 % 2.29 mm
14:38 17.8 °C 17.5 °C 1001.2 hPa SSE 10.3 km/h 17.7 km/h 98 % 2.29 mm
14:43 17.9 °C 17.6 °C 1000.9 hPa East 8.4 km/h 16.1 km/h 98 % 2.29 mm
14:48 17.9 °C 17.6 °C 1000.9 hPa ESE 7.2 km/h 14.5 km/h 98 % 2.03 mm
14:53 17.9 °C 17.6 °C 1000.9 hPa SE 8.2 km/h 16.7 km/h 98 % 2.29 mm
14:59 17.9 °C 17.6 °C 1000.6 hPa SE 10.9 km/h 27.4 km/h 98 % 2.03 mm
15:04 18 °C 17.7 °C 1000.6 hPa SE 8 km/h 13 km/h 98 % 2.03 mm
15:09 18.1 °C 17.7 °C 1000.2 hPa SSE 11.3 km/h 22.2 km/h 98 % 2.03 mm
15:14 18.1 °C 17.7 °C 1000.2 hPa East 6.4 km/h 18.5 km/h 98 % 2.03 mm
15:19 18.1 °C 17.7 °C 1000.2 hPa East 5.8 km/h 18.5 km/h 98 % 2.03 mm
15:24 18.1 °C 17.8 °C 999.9 hPa SSE 9.7 km/h 18.5 km/h 98 % 2.03 mm
15:29 18.1 °C 17.8 °C 999.9 hPa SE 10.5 km/h 18.5 km/h 98 % 2.03 mm
15:34 18.1 °C 17.8 °C 999.9 hPa SE 6.9 km/h 13 km/h 98 % 1.78 mm
15:39 18.1 °C 17.8 °C 999.9 hPa ESE 7.7 km/h 14.8 km/h 98 % 2.03 mm
15:44 18.1 °C 17.8 °C 999.5 hPa SE 14.5 km/h 29.6 km/h 98 % 2.03 mm
15:49 18.1 °C 17.7 °C 999.5 hPa SE 14.5 km/h 25.9 km/h 98 % 2.03 mm
15:54 18.1 °C 17.7 °C 999.5 hPa ESE 9.2 km/h 18.5 km/h 98 % 2.03 mm
15:59 18.1 °C 17.7 °C 999.2 hPa ESE 4.7 km/h 16.7 km/h 98 % 2.29 mm
16:04 18.1 °C 17.7 °C 999.5 hPa ESE 8.7 km/h 16.7 km/h 98 % 2.03 mm
16:10 18.1 °C 17.7 °C 999.5 hPa East 10.6 km/h 25.9 km/h 98 % 2.03 mm
16:15 18.1 °C 17.7 °C 999.2 hPa SE 7.7 km/h 22.5 km/h 98 % 1.78 mm
16:20 18.1 °C 17.7 °C 999.2 hPa SSE 7.9 km/h 18.5 km/h 98 % 2.03 mm
16:25 18.1 °C 17.7 °C 998.9 hPa SSE 9.2 km/h 18.5 km/h 98 % 2.03 mm
16:30 18.1 °C 17.7 °C 998.9 hPa ESE 11.3 km/h 18.5 km/h 98 % 1.78 mm
16:35 18.1 °C 17.8 °C 998.9 hPa SSE 15.1 km/h 29 km/h 98 % 1.78 mm
16:40 18.1 °C 17.8 °C 998.5 hPa SE 9.5 km/h 18.5 km/h 98 % 2.03 mm
16:45 18.1 °C 17.8 °C 998.5 hPa SE 7.6 km/h 20.9 km/h 98 % 1.78 mm
16:50 18.2 °C 17.8 °C 998.5 hPa ESE 7.2 km/h 20.4 km/h 98 % 2.03 mm
16:55 18.2 °C 17.8 °C 998.2 hPa SE 12.2 km/h 18.5 km/h 98 % 1.78 mm
17:00 18.2 °C 17.8 °C 998.2 hPa SSE 4.7 km/h 14.8 km/h 98 % 1.78 mm
17:05 18.2 °C 17.8 °C 998.2 hPa ESE 9.8 km/h 14.5 km/h 98 % 2.03 mm
17:10 18.2 °C 17.8 °C 998.2 hPa South 14.2 km/h 22.2 km/h 98 % 1.78 mm
17:15 18.2 °C 17.8 °C 997.9 hPa ESE 10.1 km/h 14.8 km/h 98 % 1.78 mm
17:21 18.2 °C 17.8 °C 997.9 hPa SE 8 km/h 19.3 km/h 98 % 0 mm
17:26 18.2 °C 17.8 °C 997.9 hPa SE 9.7 km/h 19.3 km/h 98 % 0 mm
17:31 18.2 °C 17.8 °C 997.9 hPa ESE 4.8 km/h 20.9 km/h 98 % 0 mm
17:36 18.2 °C 17.8 °C 997.5 hPa ESE 11.3 km/h 19.3 km/h 98 % 0 mm
17:40 18.1 °C 17.8 °C 997.5 hPa ESE 9.2 km/h 11.3 km/h 98 % 1.78 mm
17:46 18.1 °C 17.8 °C 997.2 hPa SE 9.7 km/h 27.4 km/h 98 % 0 mm
17:51 18.1 °C 17.8 °C 996.8 hPa SE 11.3 km/h 19.3 km/h 98 % 0 mm
17:56 18.1 °C 17.8 °C 996.8 hPa SE 8 km/h 19.3 km/h 98 % 0 mm
18:01 18.2 °C 17.8 °C 996.8 hPa ESE 15.6 km/h 31.5 km/h 98 % 1.78 mm
18:06 18.2 °C 17.9 °C 996.5 hPa SE 9.8 km/h 20.9 km/h 98 % 1.52 mm
18:11 18.3 °C 17.9 °C 996.5 hPa SSE 11.3 km/h 30.6 km/h 98 % 1.78 mm
18:16 18.3 °C 18 °C 996.5 hPa SSE 10.8 km/h 18.5 km/h 98 % 1.52 mm
18:21 18.3 °C 18 °C 996.5 hPa ESE 9.8 km/h 18.5 km/h 98 % 1.78 mm
18:26 18.3 °C 18 °C 996.2 hPa SE 6 km/h 14.8 km/h 98 % 1.78 mm
18:31 18.4 °C 18.1 °C 995.8 hPa ESE 14.2 km/h 25.9 km/h 98 % 1.52 mm
18:36 18.4 °C 18.1 °C 995.8 hPa SE 12.9 km/h 31.5 km/h 98 % 1.78 mm
18:41 18.4 °C 18.1 °C 995.8 hPa ESE 4.7 km/h 9.3 km/h 98 % 1.52 mm
18:46 18.4 °C 18.1 °C 995.5 hPa SE 10.3 km/h 18.5 km/h 98 % 1.78 mm
18:51 18.4 °C 18.1 °C 995.5 hPa East 14.6 km/h 20.4 km/h 98 % 1.52 mm
18:56 18.4 °C 18.1 °C 995.5 hPa SE 8.7 km/h 13 km/h 98 % 1.78 mm
19:01 18.4 °C 18.1 °C 995.1 hPa SE 17.4 km/h 18.5 km/h 98 % 1.52 mm
19:06 18.4 °C 18.1 °C 994.8 hPa SSE 15 km/h 29 km/h 98 % 1.78 mm
19:12 18.3 °C 18 °C 994.8 hPa ESE 8.2 km/h 18.5 km/h 98 % 1.52 mm
19:17 18.3 °C 18 °C 994.5 hPa SE 8.5 km/h 22.2 km/h 98 % 1.52 mm
19:22 18.3 °C 18 °C 994.1 hPa SSE 4.3 km/h 18.5 km/h 98 % 1.52 mm
19:27 18.3 °C 18 °C 993.8 hPa SSE 8.5 km/h 16.7 km/h 98 % 1.27 mm
19:32 18.4 °C 18.1 °C 993.5 hPa ESE 12.6 km/h 25.9 km/h 98 % 1.52 mm
19:37 18.4 °C 18.1 °C 993.5 hPa ESE 6.6 km/h 16.7 km/h 98 % 1.27 mm
19:42 18.5 °C 18.2 °C 993.1 hPa East 9.5 km/h 22.2 km/h 98 % 1.52 mm
19:47 18.5 °C 18.2 °C 992.8 hPa East 12.2 km/h 24.1 km/h 98 % 1.27 mm
19:52 18.4 °C 18.1 °C 992.4 hPa ESE 10 km/h 20.4 km/h 98 % 1.52 mm
19:57 18.4 °C 18.1 °C 992.4 hPa SE 15.6 km/h 31.5 km/h 98 % 1.27 mm
20:02 18.3 °C 17.9 °C 992.1 hPa SE 8.9 km/h 13 km/h 98 % 1.52 mm
20:07 18.3 °C 17.9 °C 991.8 hPa ESE 7.2 km/h 13 km/h 98 % 1.27 mm
20:12 18.3 °C 17.9 °C 991.4 hPa ESE 10.6 km/h 20.9 km/h 98 % 1.52 mm
20:17 18.3 °C 17.9 °C 991.1 hPa East 11.4 km/h 16.7 km/h 98 % 1.52 mm
20:22 18.2 °C 17.9 °C 990.4 hPa East 9.7 km/h 19.3 km/h 98 % 1.52 mm
20:28 18.2 °C 17.8 °C 990.1 hPa East 6.6 km/h 11.1 km/h 98 % 1.52 mm
20:33 18.2 °C 17.8 °C 990.1 hPa ESE 6.1 km/h 11.3 km/h 98 % 1.52 mm
20:38 18.1 °C 17.8 °C 989.4 hPa East 5.1 km/h 11.3 km/h 98 % 1.27 mm
20:43 18.1 °C 17.7 °C 989.1 hPa East 4.7 km/h 8 km/h 98 % 1.27 mm
20:48 18 °C 17.7 °C 988.7 hPa East 5.1 km/h 8 km/h 98 % 1.52 mm
20:53 18 °C 17.7 °C 988.7 hPa ENE 5.6 km/h 5.6 km/h 98 % 1.27 mm
20:58 18.1 °C 17.7 °C 988 hPa East 9.3 km/h 12.9 km/h 98 % 1.52 mm
21:03 18 °C 17.7 °C 987.7 hPa East 10.3 km/h 30.6 km/h 98 % 1.27 mm
21:08 17.9 °C 17.6 °C 987 hPa East 13.5 km/h 16.7 km/h 98 % 1.52 mm
21:13 17.7 °C 17.4 °C 986.3 hPa East 15 km/h 18.5 km/h 98 % 1.27 mm
21:18 17.6 °C 17.3 °C 986.3 hPa East 10.6 km/h 13 km/h 98 % 1.27 mm
21:23 17.6 °C 17.2 °C 986 hPa East 11.3 km/h 14.8 km/h 98 % 1.27 mm
21:28 17.5 °C 17.2 °C 985.7 hPa ENE 10.8 km/h 16.7 km/h 98 % 1.27 mm
21:33 17.6 °C 17.2 °C 985.7 hPa ESE 7.9 km/h 13 km/h 98 % 1.27 mm
21:38 17.7 °C 17.3 °C 985 hPa East 5.6 km/h 9.7 km/h 98 % 1.27 mm
21:39 17.7 °C 17.3 °C 985 hPa ESE 6.1 km/h 8 km/h 98 % 1.27 mm
21:44 17.9 °C 17.6 °C 984.6 hPa ESE 13.5 km/h 22.2 km/h 98 % 1.27 mm
21:49 18.1 °C 17.7 °C 984 hPa ESE 6 km/h 25.9 km/h 98 % 1.27 mm
21:54 18.3 °C 17.9 °C 984 hPa ESE 12.1 km/h 24.1 km/h 98 % 1.52 mm
21:59 18.5 °C 18.2 °C 983.6 hPa SSE 9.5 km/h 18.5 km/h 98 % 1.27 mm
22:04 18.7 °C 18.6 °C 983.3 hPa ESE 15 km/h 31.5 km/h 99 % 1.52 mm
22:10 18.9 °C 18.8 °C 983 hPa SE 17.1 km/h 40.7 km/h 99 % 1.27 mm
22:15 19.1 °C 18.9 °C 982.3 hPa South 18.8 km/h 44.4 km/h 99 % 1.52 mm
22:20 19.2 °C 18.9 °C 981.9 hPa ESE 17.4 km/h 31.5 km/h 98 % 1.27 mm
22:25 19.3 °C 19.2 °C 981.9 hPa NE 23.5 km/h 42.6 km/h 99 % 1.27 mm
22:30 19.4 °C 19.1 °C 981.9 hPa SE 23.7 km/h 37 km/h 98 % 1.52 mm
22:36 19.6 °C 19.3 °C 981.6 hPa SE 24.1 km/h 59.5 km/h 98 % 0 mm
22:45 19.7 °C 19.4 °C 980.6 hPa SE 24.1 km/h 40.2 km/h 98 % 0 mm
22:51 19.8 °C 19.4 °C 980.2 hPa SE 24.1 km/h 49.9 km/h 98 % 0 mm
22:56 19.8 °C 19.4 °C 980.2 hPa SSE 20.9 km/h 38.6 km/h 98 % 0 mm
23:01 19.7 °C 19.4 °C 980.6 hPa South 20.3 km/h 55.5 km/h 98 % 1.52 mm
23:06 19.7 °C 19.3 °C 982.3 hPa SE 20.6 km/h 51.8 km/h 98 % 1.27 mm
23:11 19.6 °C 19.1 °C 980.6 hPa SSE 20 km/h 35.2 km/h 97 % 1.27 mm
23:16 19.5 °C 19 °C 980.9 hPa SE 27.4 km/h 53.8 km/h 97 % 1.27 mm
23:21 19.3 °C 18.6 °C 979.9 hPa South 15.8 km/h 29.6 km/h 96 % 1.27 mm
23:24 19.2 °C 18.6 °C 971.8 hPa SSE 23 km/h 35.2 km/h 96 % 1.52 mm
23:29 19.1 °C 18.4 °C 979.2 hPa SE 24.6 km/h 46.3 km/h 96 % 1.27 mm
23:30 19.1 °C 18.4 °C 979.2 hPa SSE 14.6 km/h 31.5 km/h 96 % 1.27 mm
23:35 18.9 °C 18.3 °C 979.2 hPa ESE 11.1 km/h 25.9 km/h 96 % 1.52 mm
23:40 18.9 °C 18.2 °C 979.6 hPa SSE 8.2 km/h 16.7 km/h 96 % 1.27 mm
23:45 18.9 °C 18.2 °C 979.6 hPa SSE 4.7 km/h 9.3 km/h 96 % 1.52 mm
23:50 18.8 °C 18.2 °C 981.6 hPa South 4.8 km/h 12.9 km/h 96 % 0 mm
23:55 18.8 °C 18.1 °C 981.6 hPa SSW 6.4 km/h 16.7 km/h 96 % 1.52 mm
Crab Meadow Weather
Compliments of Weather Underground - 3 mb

Script developed by  Jim McMurry - jmcmurry@mwt.net Adapted for the template by  Wim van der Kuil - Leuven-Template.eu

Wind Chill: Everyone has noticed that in winter it seems colder when the wind is blowing. Mothers recognize this and tell their children to wear more clothes. The question the children ask is how much more clothes. Mothers answer very precisely because Mothers know everything. For the rest of us, wind chill calculations are the basis for determining the effect of wind on body heat loss. The wind chill equivalent temperature equation is: Wind chill temperature = 35.74 + 0.6215T - 35.75V (**0.16) + 0.4275TV(**0.16) where T is the air temperature in Fahrenheit and V is the wind speed in MPH.